LPA727 USSS-UGTB

Flight info

Callsign LPA727
Flight time 3h 0m
Altitude 36000
Route K0846F340 MIKUS6K MIKUS T764 GITEK T691 DIBGA/K0839F360 T691 UROBO R807 NIRGA A835 GUSLI/N0449F370 M54 LAGAS LAGAS1B
Aircraft A320/M-SDE3FGHIRWY/LB1

Departure

Time 2026-04-26 12:04
Airport Koltsovo Airport (USSS)

Arrival

Time 2026-04-26 15:05
Airport Tbilisi International Airport (UGTB)
Time Latitude Longitude Altitude Speed Heading
2026-04-26 11:51 56.74935 60.80045 775 ft 0 kts 360°
2026-04-26 11:54 56.74921 60.80045 774 ft 2 kts
2026-04-26 11:54 56.74905 60.80044 774 ft 2 kts
2026-04-26 11:54 56.74888 60.80042 774 ft 2 kts
2026-04-26 11:55 56.74872 60.80038 774 ft 2 kts 17°
2026-04-26 11:55 56.74857 60.80026 774 ft 2 kts 58°
2026-04-26 11:55 56.74852 60.80002 774 ft 1 kts 91°
2026-04-26 11:55 56.74852 60.79999 774 ft 0 kts 90°
2026-04-26 11:57 56.74853 60.80059 773 ft 9 kts 90°
2026-04-26 11:57 56.74854 60.80192 773 ft 10 kts 88°
2026-04-26 11:58 56.74853 60.80307 773 ft 10 kts 91°
2026-04-26 11:58 56.74853 60.80458 773 ft 14 kts 91°
2026-04-26 11:58 56.74850 60.80651 773 ft 15 kts 92°
2026-04-26 11:58 56.74852 60.80827 773 ft 13 kts 90°
2026-04-26 11:59 56.74854 60.81014 773 ft 15 kts 79°
2026-04-26 11:59 56.74863 60.81191 773 ft 16 kts 91°
2026-04-26 11:59 56.74863 60.81423 773 ft 18 kts 92°
2026-04-26 11:59 56.74862 60.81635 773 ft 16 kts 90°
2026-04-26 12:00 56.74860 60.81821 773 ft 13 kts 95°
2026-04-26 12:00 56.74826 60.81964 773 ft 11 kts 117°
2026-04-26 12:00 56.74792 60.82091 773 ft 13 kts 116°
2026-04-26 12:00 56.74732 60.82201 773 ft 12 kts 170°
2026-04-26 12:01 56.74627 60.82201 773 ft 18 kts 179°
2026-04-26 12:01 56.74601 60.82202 774 ft 0 kts 179°
2026-04-26 12:01 56.74598 60.82202 774 ft 3 kts 179°
2026-04-26 12:01 56.74549 60.82203 774 ft 10 kts 180°
2026-04-26 12:02 56.74497 60.82176 776 ft 6 kts 217°
2026-04-26 12:02 56.74482 60.82135 775 ft 6 kts 243°
2026-04-26 12:02 56.74474 60.82014 774 ft 8 kts 269°
2026-04-26 12:02 56.74474 60.82000 774 ft 1 kts 269°
2026-04-26 12:03 56.74474 60.81997 774 ft 0 kts 269°
2026-04-26 12:03 56.74474 60.81992 774 ft 1 kts 269°
2026-04-26 12:03 56.74474 60.81952 775 ft 11 kts 270°
2026-04-26 12:03 56.74480 60.81294 771 ft 93 kts 271°
2026-04-26 12:04 56.74479 60.79660 777 ft 157 kts 271°
2026-04-26 12:04 56.74481 60.77591 1348 ft 163 kts 270°
2026-04-26 12:04 56.74484 60.75586 2054 ft 159 kts 271°
2026-04-26 12:04 56.74488 60.73530 2562 ft 170 kts 271°
2026-04-26 12:05 56.74493 60.71226 2824 ft 194 kts 271°
2026-04-26 12:05 56.74496 60.68618 3146 ft 218 kts 271°
2026-04-26 12:05 56.74495 60.65709 3681 ft 236 kts 271°
2026-04-26 12:05 56.74495 60.62702 4537 ft 240 kts 270°
2026-04-26 12:06 56.74495 60.59634 5393 ft 243 kts 270°
2026-04-26 12:06 56.74494 60.56532 6225 ft 247 kts 270°
2026-04-26 12:06 56.74284 60.53418 6990 ft 252 kts 248°
2026-04-26 12:06 56.73192 60.50889 7654 ft 264 kts 222°
2026-04-26 12:07 56.71634 60.49080 7798 ft 266 kts 211°
2026-04-26 12:07 56.69951 60.47648 8056 ft 270 kts 207°
2026-04-26 12:07 56.68229 60.46286 8927 ft 270 kts 208°
2026-04-26 12:07 56.66516 60.44865 9763 ft 272 kts 209°
2026-04-26 12:08 56.64782 60.43331 10211 ft 287 kts 210°
2026-04-26 12:08 56.62940 60.41607 10386 ft 309 kts 211°
2026-04-26 12:08 56.60976 60.39705 10571 ft 330 kts 211°
2026-04-26 12:08 56.59623 60.38376 10897 ft 336 kts 211°
2026-04-26 12:09 56.56854 60.35644 11738 ft 342 kts 211°
2026-04-26 12:09 56.55463 60.34267 12181 ft 345 kts 212°
2026-04-26 12:09 56.53345 60.32172 12833 ft 349 kts 211°
2026-04-26 12:09 56.51201 60.30057 13482 ft 353 kts 211°
2026-04-26 12:10 56.49033 60.27922 14071 ft 357 kts 211°
2026-04-26 12:10 56.46840 60.25767 14653 ft 361 kts 212°
2026-04-26 12:10 56.44622 60.23594 15231 ft 364 kts 212°
2026-04-26 12:10 56.42385 60.21404 15798 ft 367 kts 212°
2026-04-26 12:11 56.40236 60.18918 16376 ft 366 kts 222°
2026-04-26 12:11 56.38357 60.15819 16942 ft 367 kts 228°
2026-04-26 12:11 56.36525 60.12595 17541 ft 369 kts 228°
2026-04-26 12:11 56.34673 60.09352 18129 ft 372 kts 228°
2026-04-26 12:12 56.32810 60.06096 18639 ft 375 kts 228°
2026-04-26 12:12 56.30932 60.02818 19160 ft 377 kts 228°
2026-04-26 12:12 56.29040 59.99527 19663 ft 379 kts 228°
2026-04-26 12:12 56.27780 59.97340 20007 ft 381 kts 228°
2026-04-26 12:13 56.25218 59.92906 20654 ft 384 kts 228°
2026-04-26 12:13 56.23285 59.89564 21137 ft 386 kts 228°
2026-04-26 12:13 56.21343 59.86203 21597 ft 388 kts 228°
2026-04-26 12:13 56.19397 59.82837 22060 ft 390 kts 228°
2026-04-26 12:14 56.17434 59.79444 22506 ft 393 kts 228°
2026-04-26 12:14 56.15457 59.76034 22929 ft 395 kts 228°
2026-04-26 12:14 56.13467 59.72616 23347 ft 397 kts 228°
2026-04-26 12:14 56.11465 59.69184 23695 ft 399 kts 228°
2026-04-26 12:15 56.09448 59.65735 24018 ft 402 kts 228°
2026-04-26 12:15 56.07424 59.62272 24336 ft 404 kts 228°
2026-04-26 12:15 56.05501 59.58619 24652 ft 402 kts 236°
2026-04-26 12:15 56.03948 59.54488 24946 ft 400 kts 245°
2026-04-26 12:16 56.02660 59.50075 25256 ft 401 kts 246°
2026-04-26 12:16 56.01373 59.45647 25561 ft 403 kts 246°
2026-04-26 12:16 56.00072 59.41195 25859 ft 405 kts 246°
2026-04-26 12:16 55.98760 59.36724 26157 ft 407 kts 246°
2026-04-26 12:17 55.97440 59.32237 26449 ft 409 kts 246°
2026-04-26 12:17 55.96110 59.27731 26720 ft 411 kts 246°
2026-04-26 12:17 55.94773 59.23208 26996 ft 413 kts 246°
2026-04-26 12:17 55.93427 59.18667 27253 ft 415 kts 246°
2026-04-26 12:18 55.92078 59.14118 27495 ft 417 kts 246°
2026-04-26 12:18 55.90716 59.09536 27756 ft 419 kts 246°
2026-04-26 12:18 55.89348 59.04937 28005 ft 420 kts 246°
2026-04-26 12:18 55.87973 59.00321 28240 ft 422 kts 246°
2026-04-26 12:19 55.86612 58.95768 28472 ft 424 kts 246°
2026-04-26 12:19 55.85205 58.91077 28696 ft 425 kts 246°
2026-04-26 12:19 55.83809 58.86433 28930 ft 426 kts 246°
2026-04-26 12:19 55.82410 58.81787 29245 ft 425 kts 246°
2026-04-26 12:20 55.81012 58.77167 29581 ft 424 kts 246°
2026-04-26 12:20 55.79613 58.72539 29891 ft 424 kts 246°
2026-04-26 12:20 55.78224 58.67930 30157 ft 423 kts 246°
2026-04-26 12:20 55.76830 58.63321 30387 ft 423 kts 246°
2026-04-26 12:21 55.75430 58.58712 30624 ft 423 kts 246°
2026-04-26 12:21 55.74033 58.54120 30855 ft 423 kts 246°
2026-04-26 12:21 55.72631 58.49527 31088 ft 424 kts 246°
2026-04-26 12:21 55.71227 58.44933 31331 ft 424 kts 245°
2026-04-26 12:22 55.69821 58.40344 31554 ft 424 kts 245°
2026-04-26 12:22 55.68414 58.35761 31792 ft 423 kts 245°
2026-04-26 12:22 55.67006 58.31171 32028 ft 423 kts 245°
2026-04-26 12:22 55.65601 58.26606 32257 ft 423 kts 245°
2026-04-26 12:23 55.64189 58.22026 32500 ft 423 kts 245°
2026-04-26 12:23 55.62777 58.17443 32721 ft 423 kts 245°
2026-04-26 12:23 55.61368 58.12879 32954 ft 423 kts 245°
2026-04-26 12:23 55.59955 58.08322 33186 ft 423 kts 244°
2026-04-26 12:24 55.58534 58.03757 33421 ft 423 kts 244°
2026-04-26 12:24 55.57115 57.99204 33649 ft 423 kts 244°
2026-04-26 12:24 55.55698 57.94658 33887 ft 423 kts 244°
2026-04-26 12:25 55.52852 57.85571 34270 ft 423 kts 244°
2026-04-26 12:25 55.51421 57.81045 34446 ft 423 kts 244°
2026-04-26 12:25 55.49982 57.76508 34628 ft 423 kts 243°
2026-04-26 12:25 55.48543 57.71985 34804 ft 423 kts 243°
2026-04-26 12:26 55.47125 57.67513 34973 ft 423 kts 244°
2026-04-26 12:26 55.45670 57.62927 35138 ft 423 kts 243°
2026-04-26 12:26 55.44234 57.58396 35300 ft 424 kts 243°
2026-04-26 12:26 55.42817 57.53926 35452 ft 424 kts 243°
2026-04-26 12:27 55.41354 57.49337 35610 ft 424 kts 243°
2026-04-26 12:27 55.39927 57.44880 35765 ft 424 kts 243°
2026-04-26 12:27 55.38460 57.40310 35905 ft 424 kts 243°
2026-04-26 12:27 55.37003 57.35782 35943 ft 426 kts 243°
2026-04-26 12:28 55.34083 57.26729 35941 ft 426 kts 243°
2026-04-26 12:28 55.31167 57.17729 35943 ft 426 kts 243°
2026-04-26 12:29 55.28244 57.08668 35944 ft 426 kts 243°
2026-04-26 12:30 55.23852 56.95108 35944 ft 427 kts 243°
2026-04-26 12:30 55.20900 56.86078 35948 ft 427 kts 243°
2026-04-26 12:31 55.16471 56.72569 35944 ft 427 kts 243°
2026-04-26 12:31 55.13509 56.63575 35942 ft 427 kts 243°
2026-04-26 12:32 55.10536 56.54600 35943 ft 427 kts 243°
2026-04-26 12:33 55.06067 56.41140 35947 ft 427 kts 243°
2026-04-26 12:33 55.03085 56.32181 35936 ft 427 kts 243°
2026-04-26 12:34 55.00100 56.23233 35942 ft 427 kts 243°
2026-04-26 12:34 54.97108 56.14313 35942 ft 427 kts 242°
2026-04-26 12:35 54.94105 56.05404 35947 ft 427 kts 242°
2026-04-26 12:35 54.91094 55.96492 35946 ft 427 kts 242°
2026-04-26 12:36 54.88081 55.87611 35946 ft 427 kts 242°
2026-04-26 12:36 54.85053 55.78725 35954 ft 427 kts 242°
2026-04-26 12:37 54.82017 55.69878 35961 ft 427 kts 242°
2026-04-26 12:37 54.78995 55.61082 35965 ft 427 kts 242°
2026-04-26 12:38 54.75956 55.52252 35967 ft 427 kts 242°
2026-04-26 12:38 54.72910 55.43442 35964 ft 426 kts 242°
2026-04-26 12:39 54.69851 55.34657 35960 ft 426 kts 242°
2026-04-26 12:39 54.66788 55.25897 35960 ft 426 kts 242°
2026-04-26 12:40 54.63711 55.17083 35962 ft 425 kts 242°
2026-04-26 12:40 54.60678 55.08402 35961 ft 425 kts 242°
2026-04-26 12:41 54.57607 54.99686 35961 ft 425 kts 242°
2026-04-26 12:41 54.54524 54.91002 35960 ft 424 kts 242°
2026-04-26 12:42 54.51456 54.82329 35962 ft 424 kts 242°
2026-04-26 12:42 54.48385 54.73666 35961 ft 424 kts 242°
2026-04-26 12:43 54.45307 54.65037 35962 ft 423 kts 242°
2026-04-26 12:43 54.42222 54.56423 35961 ft 423 kts 242°
2026-04-26 12:44 54.39133 54.47834 35966 ft 423 kts 241°
2026-04-26 12:44 54.36033 54.39251 35965 ft 423 kts 241°
2026-04-26 12:45 54.32936 54.30696 35965 ft 422 kts 241°
2026-04-26 12:45 54.29839 54.22154 35967 ft 422 kts 241°
2026-04-26 12:46 54.26735 54.13611 35971 ft 422 kts 241°
2026-04-26 12:46 54.23624 54.05101 35980 ft 422 kts 241°
2026-04-26 12:47 54.20505 53.96596 35980 ft 422 kts 241°
2026-04-26 12:47 54.17381 53.88107 35974 ft 422 kts 241°
2026-04-26 12:48 54.14253 53.79637 35976 ft 422 kts 241°
2026-04-26 12:48 54.11121 53.71190 35980 ft 421 kts 241°
2026-04-26 12:49 54.07985 53.62756 35969 ft 421 kts 240°
2026-04-26 12:49 54.05369 53.55750 35974 ft 422 kts 240°
2026-04-26 12:50 54.01701 53.45974 35977 ft 422 kts 240°
2026-04-26 12:50 53.99059 53.38944 35975 ft 421 kts 240°
2026-04-26 12:51 53.95903 53.30550 35975 ft 421 kts 240°
2026-04-26 12:51 53.92734 53.22187 35971 ft 421 kts 240°
2026-04-26 12:52 53.89568 53.13831 35974 ft 421 kts 240°
2026-04-26 12:52 53.86390 53.05479 35975 ft 421 kts 240°
2026-04-26 12:53 53.83204 52.97160 35977 ft 421 kts 240°
2026-04-26 12:53 53.79979 52.88892 35975 ft 421 kts 239°
2026-04-26 12:54 53.76675 52.80703 35972 ft 422 kts 238°
2026-04-26 12:54 53.73363 52.72533 35973 ft 421 kts 238°
2026-04-26 12:55 53.70076 52.64399 35971 ft 421 kts 238°
2026-04-26 12:55 53.66777 52.56230 35973 ft 421 kts 238°
2026-04-26 12:56 53.63473 52.48076 35967 ft 421 kts 238°
2026-04-26 12:56 53.60156 52.39941 35966 ft 421 kts 238°
2026-04-26 12:57 53.56833 52.31823 35966 ft 421 kts 238°
2026-04-26 12:57 53.53515 52.23713 35969 ft 421 kts 238°
2026-04-26 12:58 53.48528 52.11594 35964 ft 421 kts 238°
2026-04-26 12:58 53.45188 52.03520 35960 ft 420 kts 238°
2026-04-26 12:59 53.41849 51.95467 35957 ft 420 kts 238°
2026-04-26 12:59 53.38509 51.87427 35955 ft 420 kts 238°
2026-04-26 13:00 53.35163 51.79410 35957 ft 420 kts 238°
2026-04-26 13:00 53.31816 51.71404 35960 ft 420 kts 238°
2026-04-26 13:01 53.28466 51.63412 35959 ft 420 kts 238°
2026-04-26 13:01 53.25132 51.55487 35956 ft 420 kts 238°
2026-04-26 13:02 53.21767 51.47530 35956 ft 419 kts 237°
2026-04-26 13:02 53.18394 51.39600 35961 ft 419 kts 237°
2026-04-26 13:03 53.15025 51.31663 35967 ft 419 kts 237°
2026-04-26 13:03 53.11657 51.23751 35961 ft 419 kts 237°
2026-04-26 13:04 53.08279 51.15839 35961 ft 419 kts 237°
2026-04-26 13:04 53.04894 51.07942 35961 ft 419 kts 237°
2026-04-26 13:05 53.01502 51.00063 35958 ft 419 kts 237°
2026-04-26 13:05 52.98106 50.92198 35961 ft 419 kts 237°
2026-04-26 13:06 52.94697 50.84341 35960 ft 419 kts 237°
2026-04-26 13:06 52.91298 50.76495 35957 ft 419 kts 237°
2026-04-26 13:07 52.87895 50.68661 35957 ft 419 kts 237°
2026-04-26 13:07 52.84504 50.60902 35949 ft 419 kts 237°
2026-04-26 13:08 52.81082 50.53116 35950 ft 418 kts 237°
2026-04-26 13:08 52.77661 50.45332 35954 ft 418 kts 237°
2026-04-26 13:09 52.74231 50.37581 35946 ft 418 kts 236°
2026-04-26 13:09 52.70792 50.29843 35948 ft 418 kts 236°
2026-04-26 13:10 52.67360 50.22115 35941 ft 418 kts 236°
2026-04-26 13:10 52.63925 50.14402 35941 ft 418 kts 236°
2026-04-26 13:11 52.60481 50.06693 35940 ft 417 kts 236°
2026-04-26 13:11 52.57040 49.99021 35935 ft 418 kts 236°
2026-04-26 13:12 52.53459 49.91478 35933 ft 418 kts 233°
2026-04-26 13:12 52.49727 49.84136 35937 ft 419 kts 232°
2026-04-26 13:13 52.46006 49.76856 35940 ft 419 kts 233°
2026-04-26 13:13 52.42290 49.69495 35942 ft 419 kts 233°
2026-04-26 13:14 52.38587 49.62134 35946 ft 419 kts 233°
2026-04-26 13:14 52.34877 49.54770 35945 ft 419 kts 233°
2026-04-26 13:15 52.31158 49.47438 35948 ft 419 kts 233°
2026-04-26 13:15 52.28059 49.41359 35943 ft 419 kts 233°
2026-04-26 13:16 52.23706 49.32818 35949 ft 419 kts 233°
2026-04-26 13:16 52.19975 49.25520 35948 ft 419 kts 233°
2026-04-26 13:17 52.14373 49.14596 35952 ft 419 kts 233°
2026-04-26 13:18 52.08753 49.03700 35942 ft 419 kts 233°
2026-04-26 13:19 52.03137 48.92841 35946 ft 418 kts 233°
2026-04-26 13:19 51.99392 48.85620 35944 ft 418 kts 232°
2026-04-26 13:20 51.95637 48.78410 35938 ft 418 kts 232°
2026-04-26 13:20 51.91878 48.71227 35934 ft 417 kts 232°
2026-04-26 13:21 51.88124 48.64058 35928 ft 417 kts 232°
2026-04-26 13:21 51.84394 48.56961 35927 ft 417 kts 232°
2026-04-26 13:22 51.80624 48.49832 35928 ft 417 kts 232°
2026-04-26 13:22 51.76846 48.42706 35930 ft 417 kts 232°
2026-04-26 13:23 51.73065 48.35576 35933 ft 417 kts 232°
2026-04-26 13:23 51.69285 48.28464 35930 ft 417 kts 232°
2026-04-26 13:24 51.65497 48.21371 35935 ft 417 kts 232°
2026-04-26 13:24 51.61727 48.14332 35933 ft 417 kts 232°
2026-04-26 13:25 51.57930 48.07271 35939 ft 417 kts 232°
2026-04-26 13:25 51.54134 48.00215 35936 ft 417 kts 232°
2026-04-26 13:26 51.50331 47.93169 35941 ft 417 kts 231°
2026-04-26 13:26 51.46519 47.86130 35941 ft 417 kts 231°
2026-04-26 13:27 51.42704 47.79119 35942 ft 417 kts 231°
2026-04-26 13:27 51.38892 47.72122 35943 ft 417 kts 231°
2026-04-26 13:28 51.35074 47.65130 35939 ft 417 kts 231°
2026-04-26 13:28 51.31259 47.58147 35941 ft 417 kts 231°
2026-04-26 13:29 51.27436 47.51185 35938 ft 417 kts 231°
2026-04-26 13:29 51.23601 47.44245 35938 ft 417 kts 231°
2026-04-26 13:30 51.19772 47.37305 35934 ft 416 kts 231°
2026-04-26 13:30 51.15945 47.30378 35928 ft 416 kts 231°
2026-04-26 13:31 51.12113 47.23474 35923 ft 416 kts 230°
2026-04-26 13:31 51.08271 47.16579 35920 ft 416 kts 230°
2026-04-26 13:32 51.04429 47.09709 35922 ft 416 kts 230°
2026-04-26 13:32 51.00584 47.02843 35917 ft 416 kts 230°
2026-04-26 13:33 50.96743 46.95998 35913 ft 415 kts 230°
2026-04-26 13:33 50.92892 46.89152 35915 ft 415 kts 230°
2026-04-26 13:34 50.89670 46.83436 35916 ft 415 kts 230°
2026-04-26 13:34 50.85821 46.76607 35917 ft 415 kts 230°
2026-04-26 13:35 50.81961 46.69794 35918 ft 416 kts 230°
2026-04-26 13:35 50.78111 46.63049 35916 ft 416 kts 230°
2026-04-26 13:36 50.74239 46.56261 35912 ft 416 kts 230°
2026-04-26 13:36 50.70343 46.49436 35914 ft 416 kts 229°
2026-04-26 13:37 50.66488 46.42711 35916 ft 416 kts 229°
2026-04-26 13:37 50.62578 46.35905 35915 ft 416 kts 229°
2026-04-26 13:38 50.58711 46.29192 35911 ft 416 kts 229°
2026-04-26 13:38 50.54822 46.22423 35915 ft 417 kts 230°
2026-04-26 13:39 50.51002 46.15575 35911 ft 417 kts 230°
2026-04-26 13:39 50.47192 46.08714 35911 ft 417 kts 230°
2026-04-26 13:40 50.43358 46.01879 35913 ft 417 kts 230°
2026-04-26 13:40 50.39507 45.95075 35915 ft 417 kts 230°
2026-04-26 13:41 50.35656 45.88278 35915 ft 417 kts 230°
2026-04-26 13:41 50.31807 45.81482 35912 ft 417 kts 230°
2026-04-26 13:42 50.27951 45.74702 35905 ft 417 kts 230°
2026-04-26 13:42 50.24081 45.67930 35915 ft 418 kts 230°
2026-04-26 13:43 50.20206 45.61165 35904 ft 418 kts 230°
2026-04-26 13:43 50.16332 45.54421 35905 ft 417 kts 230°
2026-04-26 13:44 50.12460 45.47682 35900 ft 417 kts 230°
2026-04-26 13:44 50.08583 45.40960 35899 ft 417 kts 230°
2026-04-26 13:45 50.04699 45.34253 35895 ft 417 kts 229°
2026-04-26 13:45 50.00036 45.28829 35884 ft 424 kts 209°
2026-04-26 13:46 49.94383 45.25925 35878 ft 430 kts 200°
2026-04-26 13:46 49.88620 45.23412 35885 ft 430 kts 200°
2026-04-26 13:47 49.82856 45.20865 35885 ft 431 kts 200°
2026-04-26 13:47 49.77090 45.18317 35883 ft 431 kts 200°
2026-04-26 13:48 49.71324 45.15792 35885 ft 431 kts 200°
2026-04-26 13:48 49.65550 45.13283 35882 ft 431 kts 200°
2026-04-26 13:49 49.59765 45.10784 35887 ft 431 kts 200°
2026-04-26 13:49 49.53990 45.08292 35890 ft 431 kts 200°
2026-04-26 13:50 49.48202 45.05800 35891 ft 431 kts 200°
2026-04-26 13:50 49.42418 45.03310 35894 ft 431 kts 200°
2026-04-26 13:51 49.36673 45.00844 35899 ft 431 kts 200°
2026-04-26 13:51 49.30895 44.98377 35908 ft 431 kts 200°
2026-04-26 13:52 49.25118 44.95912 35906 ft 431 kts 200°
2026-04-26 13:52 49.19331 44.93448 35906 ft 431 kts 200°
2026-04-26 13:53 49.13548 44.90995 35902 ft 431 kts 200°
2026-04-26 13:53 49.07780 44.88549 35897 ft 430 kts 200°
2026-04-26 13:54 49.02003 44.86111 35897 ft 430 kts 200°
2026-04-26 13:54 48.96226 44.83676 35901 ft 430 kts 200°
2026-04-26 13:55 48.88537 44.80454 35903 ft 431 kts 200°
2026-04-26 13:56 48.78933 44.76227 35903 ft 429 kts 203°
2026-04-26 13:56 48.73283 44.73323 35906 ft 428 kts 204°
2026-04-26 13:57 48.67677 44.70424 35906 ft 429 kts 204°
2026-04-26 13:57 48.62010 44.67590 35909 ft 429 kts 203°
2026-04-26 13:58 48.56336 44.64810 35910 ft 429 kts 203°
2026-04-26 13:58 48.50663 44.62038 35911 ft 429 kts 203°
2026-04-26 13:59 48.44992 44.59256 35912 ft 428 kts 203°
2026-04-26 13:59 48.39323 44.56479 35914 ft 428 kts 203°
2026-04-26 14:00 48.27983 44.50938 35919 ft 428 kts 203°
2026-04-26 14:01 48.22314 44.48186 35922 ft 428 kts 203°
2026-04-26 14:01 48.16655 44.45439 35921 ft 427 kts 203°
2026-04-26 14:02 48.11001 44.42702 35916 ft 427 kts 203°
2026-04-26 14:02 48.05351 44.39976 35910 ft 426 kts 203°
2026-04-26 14:03 47.99708 44.37257 35917 ft 426 kts 203°
2026-04-26 14:03 47.94065 44.34544 35932 ft 426 kts 203°
2026-04-26 14:04 47.88342 44.32119 35925 ft 429 kts 199°
2026-04-26 14:04 47.82512 44.30111 35919 ft 430 kts 198°
2026-04-26 14:05 47.76670 44.28138 35913 ft 430 kts 199°
2026-04-26 14:05 47.70884 44.26096 35917 ft 430 kts 199°
2026-04-26 14:06 47.65077 44.23998 35926 ft 430 kts 199°
2026-04-26 14:06 47.59267 44.21905 35919 ft 429 kts 199°
2026-04-26 14:07 47.53460 44.19828 35914 ft 429 kts 199°
2026-04-26 14:07 47.47654 44.17762 35915 ft 429 kts 199°
2026-04-26 14:08 47.41851 44.15707 35914 ft 429 kts 199°
2026-04-26 14:08 47.36044 44.13653 35917 ft 429 kts 199°
2026-04-26 14:09 47.30242 44.11597 35919 ft 429 kts 199°
2026-04-26 14:09 47.24426 44.09543 35918 ft 429 kts 199°
2026-04-26 14:10 47.18613 44.07498 35920 ft 429 kts 199°
2026-04-26 14:10 47.12801 44.05464 35926 ft 430 kts 199°
2026-04-26 14:11 47.04082 44.02406 35934 ft 429 kts 199°
2026-04-26 14:11 46.98312 44.00385 35941 ft 429 kts 199°
2026-04-26 14:12 46.92504 43.98379 35944 ft 429 kts 198°
2026-04-26 14:12 46.86695 43.96388 35948 ft 428 kts 198°
2026-04-26 14:13 46.77991 43.93398 35952 ft 428 kts 199°
2026-04-26 14:14 46.72196 43.91410 35954 ft 428 kts 199°
2026-04-26 14:14 46.66398 43.89431 35955 ft 428 kts 199°
2026-04-26 14:15 46.60607 43.87451 35955 ft 428 kts 199°
2026-04-26 14:15 46.54808 43.85487 35959 ft 428 kts 199°
2026-04-26 14:16 46.49955 43.83845 35960 ft 428 kts 199°
2026-04-26 14:16 46.44160 43.81880 35959 ft 427 kts 199°
2026-04-26 14:17 46.38402 43.79933 35958 ft 427 kts 199°
2026-04-26 14:17 46.32615 43.77982 35959 ft 427 kts 199°
2026-04-26 14:18 46.26823 43.76034 35960 ft 427 kts 199°
2026-04-26 14:18 46.21027 43.74092 35955 ft 427 kts 199°
2026-04-26 14:19 46.15240 43.72155 35954 ft 427 kts 199°
2026-04-26 14:19 46.09444 43.70221 35952 ft 427 kts 199°
2026-04-26 14:20 46.03654 43.68286 35949 ft 427 kts 199°
2026-04-26 14:20 45.97864 43.66399 35947 ft 428 kts 198°
2026-04-26 14:21 45.92005 43.64717 35944 ft 429 kts 197°
2026-04-26 14:21 45.86139 43.63128 35940 ft 429 kts 196°
2026-04-26 14:22 45.80271 43.61508 35940 ft 430 kts 197°
2026-04-26 14:22 45.74407 43.59847 35946 ft 430 kts 197°
2026-04-26 14:23 45.68538 43.58184 35948 ft 430 kts 197°
2026-04-26 14:23 45.62666 43.56531 35953 ft 430 kts 197°
2026-04-26 14:24 45.56790 43.54891 35951 ft 430 kts 197°
2026-04-26 14:24 45.50911 43.53256 35954 ft 430 kts 197°
2026-04-26 14:25 45.45031 43.51616 35953 ft 430 kts 196°
2026-04-26 14:25 45.39151 43.49982 35955 ft 431 kts 196°
2026-04-26 14:26 45.33264 43.48348 35952 ft 431 kts 196°
2026-04-26 14:26 45.27376 43.46728 35946 ft 431 kts 196°
2026-04-26 14:27 45.21489 43.45106 35949 ft 431 kts 196°
2026-04-26 14:27 45.15597 43.43476 35954 ft 431 kts 196°
2026-04-26 14:28 45.09712 43.41860 35957 ft 432 kts 195°
2026-04-26 14:28 45.03669 43.41216 35953 ft 437 kts 188°
2026-04-26 14:29 44.97589 43.40835 35946 ft 437 kts 188°
2026-04-26 14:29 44.91511 43.40448 35949 ft 437 kts 187°
2026-04-26 14:30 44.85428 43.40054 35948 ft 437 kts 188°
2026-04-26 14:30 44.79345 43.39657 35953 ft 438 kts 187°
2026-04-26 14:31 44.73263 43.39263 35947 ft 438 kts 187°
2026-04-26 14:31 44.67174 43.38878 35953 ft 438 kts 187°
2026-04-26 14:32 44.61088 43.38490 35952 ft 438 kts 187°
2026-04-26 14:32 44.55003 43.38111 35948 ft 438 kts 187°
2026-04-26 14:33 44.48921 43.37728 35947 ft 438 kts 187°
2026-04-26 14:33 44.42833 43.37358 35941 ft 438 kts 187°
2026-04-26 14:34 44.36741 43.37002 35941 ft 438 kts 187°
2026-04-26 14:34 44.30651 43.36642 35941 ft 438 kts 187°
2026-04-26 14:35 44.24564 43.36270 35940 ft 438 kts 187°
2026-04-26 14:35 44.18473 43.35899 35942 ft 438 kts 187°
2026-04-26 14:36 44.12387 43.35543 35941 ft 438 kts 187°
2026-04-26 14:36 44.06297 43.35191 35944 ft 438 kts 187°
2026-04-26 14:37 44.00214 43.34826 35943 ft 438 kts 187°
2026-04-26 14:37 43.94121 43.34460 35941 ft 438 kts 187°
2026-04-26 14:38 43.88081 43.34096 35940 ft 437 kts 187°
2026-04-26 14:38 43.81957 43.33726 35950 ft 437 kts 187°
2026-04-26 14:39 43.75918 43.33365 35949 ft 437 kts 187°
2026-04-26 14:39 43.69850 43.33023 35946 ft 436 kts 187°
2026-04-26 14:40 43.63784 43.32668 35948 ft 436 kts 187°
2026-04-26 14:40 43.57732 43.32302 35949 ft 435 kts 187°
2026-04-26 14:41 43.51680 43.31940 35948 ft 435 kts 187°
2026-04-26 14:41 43.45631 43.31589 35951 ft 434 kts 187°
2026-04-26 14:42 43.39597 43.31260 35953 ft 433 kts 187°
2026-04-26 14:42 43.33575 43.30914 35953 ft 433 kts 187°
2026-04-26 14:43 43.27559 43.30557 35953 ft 433 kts 187°
2026-04-26 14:43 43.21544 43.30213 35959 ft 433 kts 187°
2026-04-26 14:44 43.15525 43.29867 35966 ft 433 kts 185°
2026-04-26 14:44 43.12510 43.30286 35967 ft 441 kts 169°
2026-04-26 14:44 43.09644 43.31866 35962 ft 450 kts 153°
2026-04-26 14:45 43.04422 43.36662 35969 ft 453 kts 150°
2026-04-26 14:45 42.99227 43.41557 35970 ft 453 kts 150°
2026-04-26 14:46 42.94032 43.46432 35974 ft 453 kts 150°
2026-04-26 14:46 42.88817 43.51280 35978 ft 453 kts 150°
2026-04-26 14:47 42.83597 43.56123 35986 ft 454 kts 150°
2026-04-26 14:47 42.78380 43.60955 35996 ft 454 kts 151°
2026-04-26 14:47 42.75762 43.63379 35325 ft 457 kts 151°
2026-04-26 14:48 42.73107 43.65830 34153 ft 466 kts 151°
2026-04-26 14:48 42.70410 43.68319 33072 ft 469 kts 151°
2026-04-26 14:48 42.67709 43.70813 32042 ft 470 kts 151°
2026-04-26 14:48 42.65005 43.73306 31022 ft 471 kts 150°
2026-04-26 14:49 42.62282 43.75810 29852 ft 474 kts 150°
2026-04-26 14:49 42.59542 43.78327 28623 ft 475 kts 150°
2026-04-26 14:49 42.56834 43.80821 28002 ft 465 kts 150°
2026-04-26 14:49 42.54167 43.83279 27243 ft 460 kts 150°
2026-04-26 14:50 42.51537 43.85698 26526 ft 454 kts 150°
2026-04-26 14:50 42.48937 43.88084 25809 ft 450 kts 149°
2026-04-26 14:50 42.46358 43.90446 25097 ft 445 kts 149°
2026-04-26 14:50 42.43794 43.92788 24400 ft 442 kts 149°
2026-04-26 14:51 42.41284 43.95072 23724 ft 440 kts 149°
2026-04-26 14:51 42.38751 43.97372 22966 ft 436 kts 149°
2026-04-26 14:51 42.36250 43.99645 22344 ft 431 kts 149°
2026-04-26 14:51 42.33773 44.01897 21717 ft 426 kts 149°
2026-04-26 14:52 42.31327 44.04123 21125 ft 422 kts 149°
2026-04-26 14:52 42.28904 44.06329 20560 ft 418 kts 149°
2026-04-26 14:52 42.26504 44.08510 20005 ft 414 kts 149°
2026-04-26 14:52 42.24123 44.10668 19476 ft 411 kts 149°
2026-04-26 14:53 42.21756 44.12808 18959 ft 408 kts 149°
2026-04-26 14:53 42.19404 44.14927 18441 ft 405 kts 149°
2026-04-26 14:53 42.17067 44.17034 17885 ft 402 kts 149°
2026-04-26 14:53 42.14755 44.19119 17371 ft 398 kts 149°
2026-04-26 14:54 42.12466 44.21188 16850 ft 394 kts 149°
2026-04-26 14:54 42.10195 44.23241 16315 ft 392 kts 149°
2026-04-26 14:54 42.07940 44.25276 15787 ft 389 kts 149°
2026-04-26 14:54 42.05690 44.27301 15243 ft 387 kts 149°
2026-04-26 14:55 42.03460 44.29307 14696 ft 385 kts 149°
2026-04-26 14:55 42.01234 44.31311 14125 ft 384 kts 149°
2026-04-26 14:55 41.99012 44.33306 13509 ft 383 kts 149°
2026-04-26 14:55 41.96803 44.35287 12937 ft 380 kts 149°
2026-04-26 14:56 41.94617 44.37246 12355 ft 377 kts 149°
2026-04-26 14:56 41.93179 44.38535 11971 ft 375 kts 148°
2026-04-26 14:56 41.91016 44.40473 11378 ft 372 kts 148°
2026-04-26 14:56 41.89034 44.42297 10765 ft 372 kts 143°
2026-04-26 14:57 41.87419 44.44943 10531 ft 363 kts 117°
2026-04-26 14:57 41.86776 44.48127 10411 ft 349 kts 92°
2026-04-26 14:57 41.87163 44.51251 10293 ft 335 kts 67°
2026-04-26 14:57 41.88396 44.53791 10179 ft 320 kts 45°
2026-04-26 14:58 41.89916 44.55914 10042 ft 309 kts 44°
2026-04-26 14:58 41.91205 44.58162 9861 ft 301 kts 64°
2026-04-26 14:58 41.91699 44.60800 9616 ft 286 kts 90°
2026-04-26 14:58 41.91352 44.63361 9104 ft 276 kts 116°
2026-04-26 14:59 41.90287 44.65460 8473 ft 270 kts 137°
2026-04-26 14:59 41.88921 44.67193 7806 ft 270 kts 138°
2026-04-26 14:59 41.87545 44.68929 7372 ft 271 kts 137°
2026-04-26 14:59 41.86636 44.70079 7104 ft 271 kts 137°
2026-04-26 15:00 41.84818 44.72377 6610 ft 270 kts 136°
2026-04-26 15:00 41.83458 44.74108 6234 ft 269 kts 136°
2026-04-26 15:00 41.82110 44.75826 5891 ft 265 kts 136°
2026-04-26 15:00 41.80807 44.77485 5686 ft 255 kts 136°
2026-04-26 15:01 41.79521 44.79120 5319 ft 251 kts 136°
2026-04-26 15:01 41.78275 44.80704 4955 ft 240 kts 136°
2026-04-26 15:01 41.77083 44.82219 4589 ft 231 kts 136°
2026-04-26 15:01 41.75947 44.83661 4232 ft 223 kts 137°
2026-04-26 15:02 41.74862 44.85039 3892 ft 207 kts 137°
2026-04-26 15:02 41.73863 44.86307 3600 ft 188 kts 138°
2026-04-26 15:02 41.72949 44.87466 3282 ft 173 kts 138°
2026-04-26 15:02 41.72118 44.88519 3028 ft 159 kts 138°
2026-04-26 15:03 41.71340 44.89504 2757 ft 147 kts 138°
2026-04-26 15:03 41.70614 44.90424 2503 ft 141 kts 138°
2026-04-26 15:03 41.69908 44.91317 2226 ft 138 kts 137°
2026-04-26 15:03 41.69217 44.92189 2046 ft 135 kts 138°
2026-04-26 15:04 41.68533 44.93055 1830 ft 136 kts 137°
2026-04-26 15:04 41.67851 44.93925 1639 ft 135 kts 137°
2026-04-26 15:04 41.67186 44.94767 1531 ft 122 kts 137°
2026-04-26 15:04 41.66671 44.95419 1523 ft 79 kts 136°
2026-04-26 15:05 41.66365 44.95803 1522 ft 51 kts 137°
2026-04-26 15:05 41.66202 44.96007 1523 ft 46 kts 137°
2026-04-26 15:05 41.65940 44.96338 1525 ft 28 kts 135°
2026-04-26 15:05 41.65850 44.96459 1525 ft 12 kts 111°
2026-04-26 15:06 41.65856 44.96566 1522 ft 11 kts 59°
2026-04-26 15:06 41.65880 44.96592 1522 ft 0 kts 26°
2026-04-26 15:07 41.65890 44.96597 1535 ft 8 kts 19°
2026-04-26 15:08 41.65959 44.96570 1524 ft 11 kts 320°
2026-04-26 15:08 41.66043 44.96463 1526 ft 20 kts 315°
2026-04-26 15:08 41.66136 44.96349 1522 ft 15 kts 322°
2026-04-26 15:08 41.66224 44.96300 1524 ft 13 kts 351°
2026-04-26 15:09 41.66313 44.96310 1520 ft 16 kts 13°
2026-04-26 15:09 41.66448 44.96354 1520 ft 21 kts 14°
2026-04-26 15:09 41.66599 44.96402 1519 ft 23 kts 12°
2026-04-26 15:09 41.66704 44.96429 1523 ft 11 kts 354°
2026-04-26 15:10 41.66752 44.96388 1522 ft 5 kts 317°
2026-04-26 15:10 41.66771 44.96385 1525 ft 4 kts
2026-04-26 15:10 41.66797 44.96410 1523 ft 4 kts 41°
2026-04-26 15:10 41.66817 44.96435 1525 ft 3 kts 43°
2026-04-26 15:11 41.66831 44.96452 1522 ft 2 kts 44°
2026-04-26 15:11 41.66831 44.96453 1522 ft 0 kts 44°